Regional Weather Roundup
Issued by NWS

Home | Current Version | Previous Version | Text Only | Print | Product List | Glossary Off
Versions: 1 2 3 4 5 6 7 8 9 10 11 12 13 14 15 16 17 18 19 20 21 22 23 24 25 26 27 28 29 30 31 32 33 34 35 36 37 38 39 40 41 42 43 44 45 46 47 48 49 50

000
ASUS43 KDMX 070607
RWRIA

WEATHER ROUNDUP FOR IOWA
NATIONAL WEATHER SERVICE DES MOINES IA
100 AM CDT TUE JUL 07 2015

NOTE: "FAIR" INDICATES FEW OR NO CLOUDS BELOW 12,000 FEET WITH NO
SIGNIFICANT WEATHER AND/OR OBSTRUCTIONS TO VISIBILITY.

* - THESE STATIONS ARE NOT NWS STATIONS...THUS NOT UNDER NWS
QUALITY CONTROL.  THEY ALSO DO NOT REPORT WEATHER SUCH
AS PRECIPITATION OR FOG.

IAZ001>003-012>014-020>022-031>034-043>046-070700-
   NORTHWEST IOWA

CITY           SKY/WX    TMP DP  RH WIND       PRES   REMARKS
CARROLL *      CLOUDY    59  54  82 N10       30.07R
CHEROKEE *     CLEAR     57  53  85 N3        30.12R
DENISON *      PTCLDY    59  52  77 N9        30.07S
LE MARS *        N/A     55  54  94 CALM      30.14S
ORANGE CITY *  CLEAR     55  50  82 N3        30.13S
SHELDON *      MOCLDY    52  52 100 CALM      30.12R
SIOUX CITY     CLEAR     59  53  80 N5        30.13R
6HR MIN TEMP:  59; 6HR MAX TEMP:  75;

SPENCER        CLEAR     53  48  83 NW5       30.12R
6HR MIN TEMP:  52; 6HR MAX TEMP:  72;

STORM LAKE *   CLEAR     55  52  88 N9        30.11R
$$

IAZ055>058-069>071-079>083-090>094-070700-
   SOUTHWEST IOWA

CITY           SKY/WX    TMP DP  RH WIND       PRES   REMARKS
ATLANTIC *     CLOUDY    63  57  82 N12G17    30.05S
AUDUBON *      CLEAR     61  55  82 N12       30.07S
CLARINDA *     CLOUDY    66  64  94 N8        30.04R FOG
COUNCIL BLFS * MOCLDY    63  55  77 N14G21    30.08R
CRESTON *      CLOUDY    66  59  77 N13G18    30.01S HAZE
HARLAN  *      CLEAR     61  59  94 N9        30.10R
LAMONI         CLOUDY    66  60  81 N12       29.99R HAZE
6HR MIN TEMP:  66; 6HR MAX TEMP:  73; 6HR PCP:  0.05;

RED OAK *      CLOUDY    64  59  82 N13G24    30.04S
SHENANDOAH *   CLOUDY    66  61  82 N14       30.04R HAZE
$$

IAZ047>049-059>061-072>074-084-070700-
   CENTRAL IOWA

CITY           SKY/WX    TMP DP  RH WIND       PRES   REMARKS
AMES           CLOUDY    64  59  83 N12       30.02R HAZE
6HR MIN TEMP:  63; 6HR MAX TEMP:  71;

ANKENY *       PTCLDY    64  61  88 NW8       30.01R FOG
CHARITON *     CLOUDY    66  59  77 N12       29.99R HAZE
DES MOINES     CLOUDY    66  59  78 N8        30.00R HAZE
6HR MIN TEMP:  66; 6HR MAX TEMP:  73;

GRINNELL*      CLOUDY    62  58  85 N10       29.99S FOG
KNOXVILLE *    CLOUDY    66  57  72 N9G17     29.97S HAZE
MARSHALLTOWN   MOCLDY    61  58  90 NW6       29.99R FOG
6HR MIN TEMP:  61; 6HR MAX TEMP:  71;

PELLA *        CLOUDY    64  61  92 N8        29.99R FOG
PERRY *          N/A     63  55  77 N13       30.04R
$$

IAZ004>006-015-016-023>025-035-036-070700-
   NORTH CENTRAL IOWA

CITY           SKY/WX    TMP DP  RH WIND       PRES   REMARKS
ALGONA *       CLEAR     57  52  82 N10       30.08R
CLARION *      CLEAR     59  54  82 N9        30.05R
ESTHERVILLE    CLEAR     53  49  86 N8        30.10R
6HR MIN TEMP:  53; 6HR MAX TEMP:  69;

FORT DODGE *   CLEAR     59  52  77 N7        30.07R
MASON CITY     PTCLDY    58  54  86 N12       30.04R
6HR MIN TEMP:  58; 6HR MAX TEMP:  70;

FOREST CITY *  CLEAR     55  50  82 N9        30.05R
IOWA FALLS *     N/A     63  57  82 NW8       30.03R HAZE
$$

IAZ007>011-017>019-026>030-037>042-050>054-066-070700-
   NORTHEAST IOWA

CITY           SKY/WX    TMP DP  RH WIND       PRES   REMARKS
CEDAR RAPIDS   CLOUDY    64  60  87 N15       29.94R FOG
6HR MIN TEMP:  64; 6HR MAX TEMP:  75;

CHARLES CITY * CLOUDY    61  61 100 NW8       30.01R FOG
CLINTON *      CLOUDY    64  61  88 N15       29.90S
DECORAH *        N/A    N/A N/A N/A MISG        N/A
DUBUQUE        CLOUDY    62  57  83 N14G22    29.93R HAZE
6HR MIN TEMP:  62; 6HR MAX TEMP:  77;

MONTICELLO *   PTCLDY    64  61  88 N9        29.94R HAZE
OELWEIN *        N/A     61  59  94 N6        29.99R FOG
WATERLOO       MOCLDY    61  57  87 N8        29.98R FOG
6HR MIN TEMP:  60; 6HR MAX TEMP:  70;

$$

IAZ064-065-067-068-078-070700-
   EAST CENTRAL IOWA

CITY           SKY/WX    TMP DP  RH WIND       PRES   REMARKS
DAVENPORT      CLOUDY    65  61  87 N15       29.89R
6HR MIN TEMP:  65; 6HR MAX TEMP:  72; 6HR PCP:  2.07;

IOWA CITY      CLOUDY    68  60  75 N13       29.93R
6HR MIN TEMP:  68; 6HR MAX TEMP:  79;

MT. PLEASANT * CLOUDY    69  64  86 N12G17    29.91R
MUSCATINE *    CLOUDY    66  63  88 N12       29.90R
QUAD CITIES    RAIN      67  63  87 NW9G22    29.88R FOG
6HR MIN TEMP:  67; 6HR MAX TEMP:  72; 6HR PCP:  2.24;

$$

IAZ062-063-075>077-085>089-095>099-070700-
   SOUTHEAST IOWA

CITY           SKY/WX    TMP DP  RH WIND       PRES   REMARKS
BURLINGTON     CLOUDY    71  71 100 W6        29.87S
6HR MIN TEMP:  71; 6HR MAX TEMP:  72; 6HR PCP:  1.64;

FAIRFIELD *    CLOUDY    66  61  82 N13       29.93R HAZE
FORT MADISON * LGT RAIN  68  68 100 NW13G21   29.90R
KEOKUK *       CLOUDY    72  72 100 W3        29.87F
OSKALOOSA *    MOCLDY    64  58  79 N12G18    29.96S HAZE
CENTERVILLE *  CLOUDY    64  61  88 N13G18    29.97S
OTTUMWA        CLOUDY    65  60  84 N13       29.93R HAZE
6HR MIN TEMP:  65; 6HR MAX TEMP:  74; 6HR PCP:  0.02;

WASHINGTON *   CLOUDY    66  63  88 N13       29.93R FOG
$$

ABBREVIATIONS USED IN REMARKS
   TC - TEMPERATURES IN CELSIUS
  WCI - WIND CHILL INDEX
   HX - HEAT INDEX
  VSB - VISIBILITY
$$



USA.gov is the U.S. government's official web portal to all federal, state and local government web resources and services.